Location: Marne
(34.0056°N, 117.9064°W)
Time: 17:35:46
(UTC+00:00)

Atlas Centaur 2 - Pass Details

Date: 18 January 2020
Orbit: 459 x 1310 km, 30.4° (Epoch: 23 February)

Event Time Altitude Azimuth Distance (km) Brightness Sun altitude
Rises 02:13:06 0° 205° (SSW) 3,064 5.8 -13.6°
Reaches altitude 10° 02:16:11 10° 183° (S) 2,313 4.7 -14.3°
Maximum altitude 02:19:35 17° 145° (SE) 2,070 4.0 -14.9°
Enters shadow 02:22:23 13° 116° (ESE) 2,453 4.2 -15.5°
